Date String (YYYY-MM-DD hh:mm:ss) UTC,Instrument flags,Ambient pressure (hPa),Sample flow (lpm),Bypass flow (lpm),Sample temperature (°C),Ambient temperature (°C),ASC tube jacket temperature (°C),LED temperature (°C),Box temperature (°C),Sample RH (%),Span deviation,Mass concentration (μg/m³),Mass concentration (μg/m³),Mass concentration (μg/m³)
DateTimeUTC,F1_M11,P_M11,Q1_M11,Q2_M11,T1_M11,T2_M11,T3_M11,T4_M11,T5_M11,U1_M11,ZSPAN_M11,X0_M11,X2_M11,X1_M11
2022-08-20 09:00:00,,0829.9,5.00,0.00,30.2,29.2,00.0,39.0,32.1,28.1,0000.0,0011.98,0006.81,0005.76
2022-08-20 09:01:00,,0829.8,5.00,0.00,30.3,29.3,00.0,39.0,32.1,27.9,0000.0,0011.87,0006.81,0005.75
2022-08-20 09:02:00,,0829.8,5.00,0.00,30.3,29.3,00.0,39.0,32.1,27.7,0000.0,0012.53,0006.81,0005.74
2022-08-20 09:03:00,,0829.8,5.00,0.00,30.3,29.3,00.0,39.0,32.2,27.5,0000.0,0012.30,0006.76,0005.73
2022-08-20 09:04:00,,0829.8,5.00,0.00,30.3,29.3,00.0,39.0,32.2,27.5,0000.0,0012.52,0006.75,0005.72
2022-08-20 09:05:00,,0829.8,5.00,0.00,30.3,29.3,00.0,39.0,32.2,27.4,0000.0,0012.47,0006.73,0005.71
2022-08-20 09:06:00,,0829.8,5.01,0.00,30.3,29.3,00.0,39.1,32.2,27.1,0000.0,0013.06,0006.75,0005.69
2022-08-20 09:07:00,,0829.8,5.00,0.00,30.4,29.3,00.0,39.1,32.2,26.5,0000.0,0013.10,0006.71,0005.67
2022-08-20 09:08:00,,0829.8,4.99,0.00,30.4,29.3,00.0,39.1,32.2,27.1,0000.0,0013.33,0006.73,0005.68
2022-08-20 09:09:00,,0829.7,5.00,0.00,30.4,29.3,00.0,39.1,32.3,26.8,0000.0,0013.56,0006.76,0005.67
2022-08-20 09:10:00,,0829.7,5.00,0.00,30.4,29.3,00.0,39.1,32.3,27.0,0000.0,0013.53,0006.77,0005.66
2022-08-20 09:11:00,,0829.7,4.99,0.00,30.4,29.4,00.0,39.1,32.3,27.0,0000.0,0013.24,0006.73,0005.66
2022-08-20 09:12:00,,0829.8,5.00,0.00,30.4,29.4,00.0,39.1,32.3,27.0,0000.0,0013.66,0006.68,0005.64
2022-08-20 09:13:00,,0829.7,5.00,0.00,30.4,29.3,00.0,39.1,32.3,27.0,0000.0,0013.45,0006.66,0005.62
2022-08-20 09:14:00,,0829.8,4.99,0.00,30.4,28.8,00.0,39.1,32.1,26.9,0000.0,0013.71,0006.65,0005.62
2022-08-20 09:15:00,,0829.8,5.00,0.00,30.3,28.1,00.0,39.0,32.0,27.2,0000.0,0013.88,0006.63,0005.60
2022-08-20 09:16:00,,0829.8,5.00,0.00,30.2,27.9,00.0,39.0,31.8,27.2,0000.0,0013.78,0006.58,0005.59
2022-08-20 09:17:00,,0829.8,5.00,0.00,30.1,27.8,00.0,39.0,31.8,27.2,0000.0,0013.28,0006.59,0005.57
2022-08-20 09:18:00,,0829.8,5.00,0.00,30.1,27.9,00.0,39.0,31.7,27.2,0000.0,0013.44,0006.65,0005.57
2022-08-20 09:19:00,,0829.8,5.01,0.00,30.0,28.0,00.0,38.9,31.7,27.2,0000.0,0013.56,0006.64,0005.54
2022-08-20 09:20:00,,0829.8,5.00,0.00,30.0,28.1,00.0,38.9,31.8,27.2,0000.0,0013.90,0006.65,0005.52
2022-08-20 09:21:00,,0829.8,5.01,0.00,30.0,28.2,00.0,38.9,31.8,27.2,0000.0,0014.52,0006.63,0005.51
2022-08-20 09:22:00,,0829.8,4.99,0.00,30.0,28.3,00.0,38.9,31.8,27.5,0000.0,0015.39,0006.58,0005.49
2022-08-20 09:23:00,,0829.8,5.01,0.00,30.0,28.4,00.0,38.9,31.8,27.6,0000.0,0015.23,0006.63,0005.49
2022-08-20 09:24:00,,0829.8,4.99,0.00,30.0,28.5,00.0,38.8,31.8,27.8,0000.0,0014.58,0006.60,0005.49
2022-08-20 09:25:00,,0829.8,4.99,0.00,30.0,28.6,00.0,38.8,31.8,27.9,0000.0,0014.28,0006.63,0005.48
2022-08-20 09:26:00,,0829.8,4.99,0.00,30.0,28.6,00.0,38.8,31.8,27.6,0000.0,0013.79,0006.56,0005.47
2022-08-20 09:27:00,,0829.8,5.02,0.00,30.0,28.7,00.0,38.8,31.8,27.4,0000.0,0013.99,0006.51,0005.45
2022-08-20 09:28:00,,0829.9,4.99,0.00,30.0,28.7,00.0,38.8,31.9,27.4,0000.0,0014.84,0006.48,0005.45
2022-08-20 09:29:00,,0829.9,4.99,0.00,30.0,28.8,00.0,38.8,31.9,27.4,0000.0,0015.36,0006.45,0005.46
2022-08-20 09:30:00,,0829.9,5.01,0.00,30.0,28.8,00.0,38.8,31.9,27.4,0000.0,0014.91,0006.42,0005.46
2022-08-20 09:31:00,,0829.9,5.00,0.00,30.0,28.8,00.0,38.8,31.9,27.3,0000.0,0014.67,0006.37,0005.45
2022-08-20 09:32:00,,0829.8,5.00,0.00,30.0,28.9,00.0,38.8,31.9,27.1,0000.0,0014.39,0006.33,0005.44
2022-08-20 09:33:00,,0829.8,5.00,0.00,30.1,28.9,00.0,38.8,31.9,27.0,0000.0,0013.34,0006.32,0005.44
2022-08-20 09:34:00,,0829.9,5.00,0.00,30.1,28.9,00.0,38.8,31.9,27.1,0000.0,0013.24,0006.32,0005.44
2022-08-20 09:35:00,,0829.9,4.99,0.00,30.1,29.0,00.0,38.9,32.0,27.3,0000.0,0013.40,0006.36,0005.44
2022-08-20 09:36:00,,0829.9,5.00,0.00,30.1,29.0,00.0,38.9,32.0,27.2,0000.0,0013.39,0006.34,0005.44
2022-08-20 09:37:00,,0829.8,5.00,0.00,30.1,29.0,00.0,38.9,32.0,27.2,0000.0,0013.49,0006.37,0005.43
2022-08-20 09:38:00,,0829.8,5.00,0.00,30.1,29.0,00.0,38.9,32.0,27.0,0000.0,0013.40,0006.39,0005.43
2022-08-20 09:39:00,,0829.8,5.01,0.00,30.1,29.0,00.0,38.9,32.0,26.9,0000.0,0012.24,0006.38,0005.43
2022-08-20 09:40:00,,0829.9,4.99,0.00,30.1,29.1,00.0,38.9,32.0,27.0,0000.0,0011.42,0006.37,0005.43
2022-08-20 09:41:00,,0829.9,5.00,0.00,30.2,29.1,00.0,38.9,32.0,26.6,0000.0,0011.70,0006.37,0005.43
2022-08-20 09:42:00,,0829.9,5.00,0.00,30.2,29.1,00.0,38.9,32.0,26.8,0000.0,0012.66,0006.40,0005.46
2022-08-20 09:43:00,,0829.9,5.00,0.00,30.2,29.1,00.0,38.9,32.0,26.9,0000.0,0012.80,0006.46,0005.48
2022-08-20 09:44:00,,0829.9,5.01,0.00,30.2,29.1,00.0,38.9,32.1,26.8,0000.0,0012.94,0006.52,0005.49
2022-08-20 09:45:00,,0829.8,4.99,0.00,30.2,29.1,00.0,38.9,32.1,26.8,0000.0,0013.28,0006.55,0005.49
2022-08-20 09:46:00,,0829.8,5.00,0.00,30.2,29.1,00.0,39.0,32.0,26.8,0000.0,0013.39,0006.47,0005.49
2022-08-20 09:47:00,,0829.8,5.00,0.00,30.2,29.1,00.0,39.0,32.1,26.7,0000.0,0013.06,0006.42,0005.48
2022-08-20 09:48:00,,0829.9,4.99,0.00,30.2,29.2,00.0,39.0,32.1,26.8,0000.0,0013.10,0006.43,0005.50
2022-08-20 09:49:00,,0829.8,5.01,0.00,30.2,29.2,00.0,39.0,32.1,26.8,0000.0,0013.09,0006.44,0005.52
2022-08-20 09:50:00,,0829.9,5.00,0.00,30.3,29.2,00.0,39.0,32.1,26.8,0000.0,0013.24,0006.48,0005.53
2022-08-20 09:51:00,,0829.9,4.99,0.00,30.3,29.2,00.0,39.0,32.1,26.6,0000.0,0013.88,0006.49,0005.52
2022-08-20 09:52:00,,0829.8,4.99,0.00,30.3,29.2,00.0,39.0,32.1,26.6,0000.0,0013.78,0006.50,0005.52
2022-08-20 09:53:00,,0829.8,5.00,0.00,30.3,29.2,00.0,39.0,32.1,26.5,0000.0,0012.97,0006.48,0005.51
2022-08-20 09:54:00,,0829.9,4.99,0.00,30.3,29.2,00.0,39.0,32.1,26.4,0000.0,0012.43,0006.47,0005.51
2022-08-20 09:55:00,,0829.8,5.00,0.00,30.3,29.2,00.0,39.0,32.2,26.3,0000.0,0012.75,0006.47,0005.51
2022-08-20 09:56:00,,0829.9,5.00,0.00,30.3,29.3,00.0,39.1,32.1,26.2,0000.0,0012.39,0006.41,0005.51
2022-08-20 09:57:00,,0829.9,5.00,0.00,30.3,29.3,00.0,39.1,32.2,26.3,0000.0,0012.25,0006.45,0005.53
2022-08-20 09:58:00,,0829.9,5.00,0.00,30.3,29.3,00.0,39.1,32.2,26.3,0000.0,0012.55,0006.52,0005.55
2022-08-20 09:59:00,,0829.9,5.00,0.00,30.3,29.3,00.0,39.1,32.2,26.2,0000.0,0012.57,0006.53,0005.54
